Погода в Актаюже

Россия / Республика Марий Эл     56°40′09″N   47°00′25″E
темп.,
°C
ветер,
м/с
пор.,
м/с
влажн.,
%
обл.,
%
осадки,
мм/ч
давл.,
гПа
погр.,
м
21 января, чт
чт2100:00−13зюз3796100 0.2 1015237
03:00−14зюз389799 0.3 1015212
06:00−12зюз3895100 0.1 1015327
09:00−11з4993100 0.3 1015408
12:00−8зюз41092100 0.2 1015522
15:00−9зюз41086100 0.4 1014562
18:00−12зюз4109296 0.0 1014399
21:00−16з239757 0.0 101449
22 января, пт
пт2200:00−17зюз229871 0.0 101421
03:00−19сз129877 0.0 101520
06:00−19сз129797 0.0 101620
09:00−19с129797 0.0 101726
12:00−17св1293100 0.0 1019213
15:00−18св2395100 0.0 1020159
18:00−21в2495100 0.0 1021128
21:00−20вюв379199 0.0 1022220
23 января, сб
сб2300:00−19юв399398 0.0 1022270
03:00−18юв499698 0.1 1021279
06:00−17юв4996100 0.8 1019334
09:00−14юв4995100 1.6 1018319
12:00−11ююв4894100 0.5 1017320
15:00−8юв4894100 0.9 1015251
18:00−5юв3597100 0.8 1014143
21:000ю2699100 1.6 1014177
24 января, вс
вс2400:00+1юз2699100 0.7 1015184
03:00+1юз3899100 0.8 1015216
06:00+1юз4998100 0.4 1015296
09:00+1юз31096100 0.5 1017378
12:00+1ююз27100100 0.0 1017306
15:00+1ююз2599100 0.0 1018204
18:000ююз2499100 0.0 1019137
21:00+1ююз2599100 0.0 1020208
25 января, пн
пн2500:00+1ю3798100 0.0 1020264
03:00+1ююз3898100 0.4 1020295
06:00+1ююз3798100 0.6 1020274
09:00+1ююз4997100 1.1 1021366
12:00+1ю3994100 0.4 1022387
15:000ю4990100 0.4 1022409
18:00−2ююв31093100 0.0 1023377
21:00−4ююв41094100 0.0 1023389